Total_Precipitation_Accumulation
0.64 0.63 0.63 0.61 0.57 0.57 0.67 0.78 1.23 1.61 2.06 2.45 2.35 2.49 2.76 2.77 2.60 2.48 2.56 2.55 2.48 2.53 2.46 2.42 2.39 2.24 2.11 1.95 1.82 1.76 1.75 1.74 1.82 1.94 1.93 1.86 1.78 1.74 1.69 1.60 1.49 1.49 1.48 1.41
0.63 0.56 0.60 0.65 0.69 0.63 0.66 0.82 1.20 1.61 2.15 2.27 2.27 2.39 2.54 2.69 2.63 2.50 2.51 2.58 2.63 2.76 2.71 2.65 2.60 2.43 2.28 2.13 1.88 1.76 1.75 1.74 1.77 1.82 1.80 1.73 1.69 1.64 1.59 1.54 1.53 1.51 1.48 1.44
0.81 0.59 0.85 1.22 1.05 0.92 0.90 1.01 1.32 1.76 1.99 1.95 2.08 2.34 2.47 2.55 2.68 2.66 2.77 2.90 2.91 2.83 2.82 2.77 2.72 2.75 2.73 2.47 2.17 2.04 1.94 1.79 1.75 1.69 1.62 1.58 1.47 1.44 1.52 1.53 1.51 1.45 1.42 1.43
1.02 1.11 1.70 1.57 1.07 1.01 1.15 1.30 1.40 1.52 1.58 1.78 2.04 2.24 2.38 2.57 2.77 2.82 2.83 2.80 2.84 2.76 2.78 2.77 2.73 2.72 2.72 2.64 2.42 2.14 1.99 1.79 1.64 1.61 1.56 1.56 1.53 1.50 1.55 1.57 1.49 1.48 1.45 1.42
1.27 1.62 1.72 1.59 1.15 1.17 1.40 1.77 1.58 1.62 1.61 1.74 1.90 2.11 2.50 2.54 2.61 2.82 2.71 2.63 2.72 2.79 2.81 2.79 2.72 2.56 2.48 2.39 2.32 2.22 1.98 1.71 1.54 1.52 1.48 1.47 1.49 1.49 1.53 1.56 1.48 1.43 1.42 1.46
1.52 1.91 2.12 1.87 1.12 0.98 1.47 2.52 1.90 1.79 1.82 1.82 1.97 2.51 2.64 2.34 2.25 2.36 2.45 2.59 2.74 2.82 2.86 2.83 2.78 2.48 2.32 2.20 2.06 1.89 1.63 1.48 1.42 1.44 1.38 1.34 1.40 1.45 1.48 1.52 1.48 1.44 1.40 1.45
1.69 2.14 2.22 1.39 0.91 1.06 2.13 2.66 2.04 1.90 1.90 1.95 2.18 2.35 2.14 1.96 2.02 2.20 2.39 2.54 2.64 2.68 2.70 2.63 2.60 2.38 2.26 2.05 1.89 1.58 1.35 1.30 1.35 1.37 1.32 1.26 1.30 1.35 1.42 1.41 1.43 1.45 1.37 1.35
1.90 2.36 2.47 1.24 1.06 1.53 1.92 1.61 1.57 1.59 1.56 1.62 1.72 1.78 1.81 1.86 1.93 2.00 2.16 2.35 2.44 2.50 2.50 2.39 2.28 2.17 2.05 1.87 1.60 1.40 1.28 1.23 1.31 1.39 1.23 1.12 1.21 1.21 1.25 1.42 1.38 1.36 1.38 1.28
2.14 2.52 2.10 1.38 1.35 1.37 1.41 1.42 1.37 1.44 1.40 1.41 1.49 1.54 1.63 1.82 1.93 1.95 1.92 2.09 2.15 2.06 1.99 2.02 1.94 1.88 1.79 1.59 1.39 1.30 1.33 1.37 1.37 1.35 1.28 1.26 1.28 1.23 1.26 1.35 1.36 1.30 1.27 1.18
1.92 2.02 1.69 1.38 1.28 1.30 1.20 1.16 1.18 1.33 1.34 1.26 1.24 1.18 1.29 1.44 1.62 1.75 1.73 1.72 1.80 1.77 1.71 1.73 1.65 1.55 1.49 1.35 1.29 1.30 1.35 1.45 1.54 1.41 1.27 1.27 1.34 1.23 1.22 1.21 1.24 1.22 1.21 1.19
2.03 1.96 1.73 1.51 1.31 1.26 1.25 1.19 1.21 1.26 1.19 1.08 1.00 0.98 1.02 1.17 1.29 1.40 1.52 1.46 1.46 1.56 1.59 1.50 1.43 1.36 1.29 1.21 1.20 1.34 1.39 1.36 1.43 1.37 1.32 1.32 1.30 1.16 1.09 1.06 1.11 1.19 1.20 1.21
2.24 1.88 1.80 1.65 1.29 1.11 1.16 1.17 1.11 1.04 0.99 0.98 0.94 0.90 0.91 1.08 1.19 1.26 1.32 1.35 1.39 1.44 1.42 1.36 1.31 1.24 1.18 1.11 1.16 1.33 1.40 1.36 1.29 1.25 1.26 1.21 1.25 1.23 1.16 1.10 1.08 1.03 1.04 0.99
1.58 1.39 1.35 1.28 1.15 1.13 1.05 0.98 1.03 0.96 0.89 0.89 0.89 0.82 0.88 1.01 1.04 1.10 1.18 1.22 1.33 1.33 1.26 1.18 1.16 1.20 1.21 1.17 1.14 1.23 1.29 1.24 1.21 1.19 1.18 1.14 1.14 1.21 1.21 1.04 0.94 0.92 0.92 0.87
1.22 1.25 1.34 1.16 1.01 0.94 0.88 0.81 0.85 0.84 0.83 0.85 0.87 0.84 0.81 0.83 0.85 0.94 1.07 1.12 1.15 1.09 1.13 1.16 1.10 1.07 1.08 1.06 1.02 1.02 1.10 1.08 1.02 1.02 1.02 1.02 1.02 1.02 1.02 1.00 0.95 0.87 0.83 0.85
1.07 1.07 1.16 1.00 0.82 0.83 0.83 0.75 0.81 0.86 0.84 0.84 0.83 0.77 0.73 0.79 0.83 0.88 0.91 0.93 0.97 0.95 0.94 1.00 1.07 1.04 0.96 0.93 0.94 0.91 0.94 0.96 0.89 0.87 0.92 0.93 0.93 0.94 0.90 0.89 0.88 0.85 0.79 0.77
1.00 0.92 0.88 0.83 0.75 0.76 0.81 0.82 0.84 0.87 0.88 0.89 0.85 0.78 0.74 0.80 0.87 0.88 0.87 0.87 0.91 0.88 0.83 0.85 0.92 0.91 0.85 0.81 0.82 0.84 0.83 0.87 0.81 0.74 0.74 0.81 0.83 0.83 0.80 0.80 0.81 0.79 0.75 0.71
1.08 1.04 0.92 0.87 0.86 0.86 0.86 0.86 0.82 0.81 0.81 0.88 0.86 0.76 0.71 0.77 0.88 0.89 0.93 0.84 0.77 0.75 0.71 0.71 0.78 0.79 0.81 0.77 0.73 0.70 0.74 0.78 0.80 0.74 0.68 0.68 0.67 0.68 0.66 0.69 0.75 0.77 0.72 0.70
0.96 0.95 0.91 0.93 0.91 0.89 0.86 0.82 0.80 0.79 0.82 0.85 0.82 0.83 0.82 0.87 0.89 0.86 0.85 0.73 0.70 0.69 0.63 0.59 0.66 0.74 0.80 0.81 0.73 0.68 0.69 0.72 0.73 0.70 0.69 0.65 0.62 0.63 0.64 0.65 0.64 0.68 0.71 0.76
0.82 0.84 0.86 0.89 0.89 0.92 0.89 0.81 0.78 0.74 0.75 0.82 0.84 0.86 0.88 0.89 0.87 0.83 0.80 0.78 0.81 0.83 0.72 0.63 0.69 0.72 0.74 0.75 0.78 0.79 0.79 0.77 0.74 0.75 0.73 0.69 0.65 0.67 0.71 0.70 0.67 0.65 0.67 0.72
0.79 0.80 0.82 0.86 0.79 0.78 0.79 0.73 0.70 0.67 0.70 0.78 0.79 0.77 0.84 0.83 0.80 0.77 0.77 0.82 0.77 0.74 0.68 0.63 0.61 0.69 0.73 0.71 0.78 0.77 0.84 0.83 0.79 0.80 0.83 0.79 0.75 0.73 0.71 0.73 0.74 0.74 0.74 0.78
0.81 0.82 0.79 0.78 0.72 0.65 0.65 0.67 0.68 0.68 0.72 0.76 0.71 0.69 0.74 0.75 0.71 0.75 0.79 0.78 0.69 0.66 0.69 0.68 0.60 0.61 0.67 0.73 0.81 0.80 0.85 0.89 0.87 0.82 0.82 0.82 0.77 0.79 0.79 0.77 0.78 0.79 0.82 0.83
0.88 0.89 0.82 0.80 0.76 0.70 0.66 0.68 0.66 0.64 0.64 0.67 0.66 0.69 0.72 0.74 0.71 0.74 0.79 0.74 0.61 0.60 0.58 0.61 0.60 0.63 0.65 0.70 0.71 0.75 0.80 0.86 0.89 0.85 0.81 0.83 0.82 0.83 0.81 0.81 0.85 0.85 0.85 0.85
0.95 0.94 0.85 0.86 0.83 0.81 0.76 0.66 0.59 0.60 0.65 0.66 0.68 0.72 0.75 0.77 0.77 0.79 0.76 0.65 0.60 0.61 0.55 0.56 0.62 0.64 0.62 0.58 0.62 0.70 0.73 0.79 0.84 0.86 0.83 0.83 0.87 0.86 0.81 0.82 0.87 0.87 0.82 0.80
0.93 0.93 0.84 0.80 0.75 0.81 0.81 0.67 0.60 0.64 0.71 0.67 0.66 0.68 0.69 0.70 0.71 0.69 0.67 0.70 0.69 0.64 0.55 0.58 0.62 0.59 0.58 0.51 0.55 0.64 0.69 0.72 0.74 0.78 0.82 0.82 0.84 0.87 0.84 0.82 0.86 0.84 0.77 0.75
0.94 0.95 0.87 0.86 0.89 0.90 0.85 0.77 0.72 0.70 0.69 0.67 0.65 0.66 0.65 0.65 0.69 0.69 0.66 0.62 0.66 0.61 0.54 0.59 0.62 0.58 0.53 0.51 0.57 0.59 0.61 0.67 0.70 0.70 0.70 0.75 0.76 0.77 0.80 0.81 0.82 0.80 0.80 0.80
1.03 1.06 1.00 0.97 0.96 0.93 0.88 0.88 0.89 0.85 0.80 0.78 0.73 0.70 0.64 0.60 0.63 0.67 0.61 0.57 0.58 0.57 0.52 0.54 0.55 0.57 0.50 0.51 0.57 0.58 0.55 0.58 0.62 0.65 0.66 0.70 0.75 0.78 0.80 0.81 0.79 0.78 0.78 0.79
1.04 1.06 1.04 0.93 0.86 0.85 0.92 0.96 0.95 0.94 0.90 0.89 0.88 0.81 0.71 0.67 0.64 0.66 0.64 0.62 0.59 0.55 0.52 0.54 0.56 0.57 0.56 0.56 0.59 0.59 0.54 0.53 0.56 0.57 0.59 0.64 0.70 0.75 0.78 0.81 0.78 0.75 0.74 0.75